Regional Weather Roundup
Issued by NWS

Home | Current Version | Previous Version | Graphics & Text | Print | Product List | Glossary On
Versions: 1 2 3 4 5 6 7 8 9 10 11 12 13 14 15 16 17 18 19 20 21 22 23 24 25 26 27 28 29 30 31 32 33 34 35 36 37 38 39 40 41 42 43 44 45 46 47 48 49 50
000
ASUS45 KTFX 291610
RWRMT
MONTANA REGIONAL WEATHER ROUNDUP
NATIONAL WEATHER SERVICE GREAT FALLS MT
1000 AM MDT FRI APR 29 2016

NOTE: "FAIR" INDICATES FEW OR NO CLOUDS BELOW 12000 FEET WITH NO
SIGNIFICANT WEATHER AND/OR OBSTRUCTIONS TO VISIBILITY.

MTZ001>007-043-291700-
WEST OF THE DIVIDE

CITY           SKY/WX    TMP DP  RH WIND       PRES   REMARKS
KALISPELL      CLOUDY    46  38  73 CALM      29.92S
MISSOULA       CLOUDY    43  35  73 N5        29.95S
BUTTE          PTSUNNY   37  24  59 VRB5      29.92S
MULLAN PASS    CLOUDY    34  26  72 CALM      29.90R
ANACONDA         N/A     39  27  60 CALM      29.92F
DEER LODGE       N/A     43  30  61 E3        29.93F
EUREKA           N/A     45  36  70 CALM      29.94S
HAMILTON         N/A     41  36  81 CALM      29.93S
LIBBY            N/A     43  34  70 CALM      29.95S
PLAINS           N/A     43  37  79 CALM      29.95S
$$

MTZ008-052>055-291700-
SOUTHWEST MONTANA

CITY           SKY/WX    TMP DP  RH WIND       PRES   REMARKS
BOZEMAN        CLOUDY    41  29  62 VRB6      29.95F
DILLON         CLOUDY    40  26  57 VRB6      29.90F
ENNIS          MOSUNNY   37  28  70 VRB3      29.98
TWIN BRIDGES     N/A     43  26  51 NW13      29.92S
$$

MTZ009-010-012-014-046-048-049-054-291700-
EAST SLOPES AND CENTRAL MONTANA

CITY           SKY/WX    TMP DP  RH WIND       PRES   REMARKS
CUT BANK       CLOUDY    37  34  89 SE7       29.97S WCI  32
GREAT FALLS    MOSUNNY   43  33  68 S8        29.97S
MALMSTROM AFB  PTSUNNY   42  33  69 SW2       29.98S
HELENA         CLOUDY    43  30  60 SE3       29.95F
CHOTEAU          N/A     39  36  87 CALM      29.97S
CONRAD           N/A     38  38 100 E6        30.00S
$$

MTZ011-013-016-021-045-047-050-051-291700-
NORTH CENTRAL MONTANA

CITY           SKY/WX    TMP DP  RH WIND       PRES   REMARKS
HAVRE          CLOUDY    47  34  60 SE17      30.03R
LEWISTOWN      CLOUDY    42  31  64 E14       30.00S
N BAR RANCH    CLOUDY    36  34  93 SE13      30.05R WCI  27
CHINOOK          N/A     45  37  76 E10       30.07R
$$

MTZ017>020-022>027-061-062-291700-
NORTHEAST MONTANA

CITY           SKY/WX    TMP DP  RH WIND       PRES   REMARKS
GLASGOW        CLOUDY    46  36  68 SE13      30.12R
JORDAN           N/A     43  36  76 SE10      30.10R
SIDNEY         CLOUDY    50  30  46 SE9       30.17S
WOLF POINT     CLOUDY    49  33  54 E7        30.14S
PLENTYWOOD       N/A     52  23  32 SE16      30.16S
POPLAR           N/A     52  27  37 SE15      30.15S
SCOBEY           N/A     52  23  32 E13       30.12R
$$

MTZ028>42-056>058-291700-
SOUTHCENTRAL AND SOUTHEAST MONTANA

CITY           SKY/WX    TMP DP  RH WIND       PRES   REMARKS
BAKER          CLOUDY    41  33  73 SE8       30.11F
BILLINGS       CLOUDY    39  36  89 N6        30.01F
LIVINGSTON     CLOUDY    38  30  73 E15       29.98S WCI  29
MILES CITY     PTSUNNY   47  35  63 SE14      30.08F
EKALAKA          N/A     43  35  73 E12       30.04F
FORSYTH          N/A     45  37  76 E9        30.06F
LAUREL           N/A     39  31  73 N5        29.99F
ROUNDUP          N/A     37  34  89 CALM      29.95F
$$

REGIONAL REPORTS...DAKOTAS

CITY           SKY/WX    TMP DP  RH WIND       PRES   REMARKS
WILLISTON      CLOUDY    51  27  39 SE16      30.18S
MINOT          SUNNY     55  22  27 E5        30.21S
DICKINSON      CLOUDY    45  29  53 E14       30.14F
BEACH          CLOUDY    45  32  61 SE13      30.17S
CROSBY           N/A     54  19  26 E13       30.21F
TIOGA            N/A     50  23  34 SE13G21   30.24S
WATFORD CITY     N/A     50  27  40 SE13G18   30.18S
BISMARCK       SUNNY     53  31  42 E8        30.18F
GRAND FORKS    MOSUNNY   53  31  42 NE13      30.22F
FARGO          SUNNY     55  36  48 E7        30.19S
BUFFALO SD       N/A     44  35  70 E10       30.02F
RAPID CITY     CLOUDY    39  35  86 E7        30.09F
$$

REGIONAL REPORTS...WYOMING/IDAHO/WASHINGTON

CITY           SKY/WX    TMP DP  RH WIND       PRES   REMARKS
GILLETTE       CLOUDY    39  33  79 S12       30.03F WCI  32
SHERIDAN       CLOUDY    43  29  57 SE9       30.02S
BUFFALO WY       N/A    N/A N/A N/A MISG      30.02R
CODY           CLOUDY    39  30  70 CALM      29.97F
YELLOWSTONE LA   N/A     32  21  64 SE5       29.93F
IDAHO FALLS    CLOUDY    48  32  53 S12       29.90F
SALMON         CLOUDY    39  34  81 CALM      29.91S
BOISE          MOSUNNY   53  39  59 NW6       29.91S
SPOKANE        CLOUDY    49  40  71 S3        29.94R
$$

REGIONAL REPORTS...ALBERTA

CITY           SKY/WX    TMP DP  RH WIND       PRES   REMARKS
EDMONTON       SUNNY     54  32  43 S17       29.95S
CALGARY        PTSUNNY   45  34  65 S15       29.94S
LETHBRIDGE     CLOUDY    43  36  75 SE14G22   29.98S
MEDICINE HAT   PTSUNNY   50  34  53 E13G20    30.02F
WATERTON GATE    N/A     41  32  70 N5          N/A
CARDSTON         N/A     41  34  75 SE7         N/A
MILK RIVER       N/A     41  36  81 S12         N/A
$$

REGIONAL REPORTS...SASKATCHEWAN

CITY           SKY/WX    TMP DP  RH WIND       PRES   REMARKS
SWIFT CURRENT  SUNNY     52  25  35 SE16G26   30.09S
REGINA         MOSUNNY   54  18  24 SE15G21   30.18F
SASKATOON      SUNNY     57  19  23 SE13      30.18S
VAL MARIE        N/A     48  34  57 SE15        N/A
ROCKGLEN         N/A     50  21  32 SE14G21     N/A
ASSINIBOIA       N/A     57  30  35 S17G23      N/A
$$



USA.gov is the U.S. government's official web portal to all federal, state and local government web resources and services.